Kodiak, AK

2:13 PM AKDT on April 21, 2018 (GMT -0800)
Kodiak

Weather History for PADQ - January, 2014

Change the Weather History Date:

Friday, January 24, 2014

  Actual Average Record
Temperature  
Mean Temperature 38 °F 30 °F  
Max Temperature 44 °F 35 °F 50 °F (1950)
Min Temperature 32 °F 26 °F -3 °F (1947)
Degree Days  
Heating Degree Days 27 35  
Month to date heating degree days 695 828  
Since 1 July heating degree days 4142 4671  
Cooling Degree Days 0 0  
Month to date cooling degree days 0 0  
Year to date cooling degree days 0 0  
Moisture  
Dew Point 38 °F    
Average Humidity 0    
Maximum Humidity 0    
Minimum Humidity 0    
Precipitation  
Precipitation 0.29 in 0.25 in 2.16 in (1976)
Month to date precipitation 12.49 6.59  
Year to date precipitation 12.49 6.59  
Snow  
Snow 0.00 in 0.40 in 5.40 in (1948)
Month to date snowfall 5.1 9.7  
Since 1 July snowfall 24.0 31.0  
Since 1 September snowfall 31.0  
Snow Depth 0.00 in    
Sea Level Pressure  
Sea Level Pressure 29.88 in    
Wind  
Wind Speed 6 mph (East)    
Max Wind Speed 25 mph    
Max Gust Speed 31 mph    
Visibility 7 miles    
Events Rain    
T = Trace of Precipitation, MM = Missing Value Source: NWS Daily Summary

Daily Weather History Graph

Daily Weather History Graph

Search for Another Location

Airport or City:

Astronomy

Jan. 24, 2014 Rise Set
Actual Time 9:27 AM AKST 5:17 PM AKST
Civil Twilight 8:41 AM AKST 6:03 PM AKST
Nautical Twilight 7:53 AM AKST 6:51 PM AKST
Astronomical Twilight 7:07 AM AKST 7:37 PM AKST
Moon 2:49 AM AKST (1/24) 11:55 AM AKST (1/24)
Length of Visible Light 9h 21m
Length of Day
7h 50m
Last Quarter, 43% of the Moon is Illuminated
Jan 24
Last Quarter
Jan 30
New
Feb 6
First Quarter
Feb 14
Full
Feb 22
Last Quarter

Hourly Weather History & Observations

Time (AKST) Temp. Windchill Dew Point Humidity Pressure Visibility Wind Dir Wind Speed Gust Speed Precip Events Conditions
12:53 AM 39.0 °F 36.8 °F 37.9 °F 96% 29.49 in 10.0 mi WNW 3.5 mph - 0.00 in   Mostly Cloudy
1:26 AM 37.4 °F - 35.6 °F 93% 29.52 in 7.0 mi Calm Calm - N/A   Scattered Clouds
1:53 AM 36.0 °F - 36.0 °F 100% 29.54 in 8.0 mi Calm Calm - N/A   Scattered Clouds
2:53 AM 39.0 °F 33.4 °F 37.0 °F 93% 29.59 in 10.0 mi SSW 8.1 mph - N/A   Partly Cloudy
3:53 AM 43.0 °F 41.3 °F 39.0 °F 86% 29.63 in 10.0 mi SW 3.5 mph - N/A   Scattered Clouds
4:53 AM 42.1 °F 40.2 °F 39.0 °F 89% 29.67 in 10.0 mi East 3.5 mph - N/A   Overcast
5:53 AM 41.0 °F - 39.0 °F 93% 29.71 in 10.0 mi Calm Calm - N/A   Scattered Clouds
6:53 AM 41.0 °F 36.4 °F 37.0 °F 86% 29.75 in 10.0 mi ESE 6.9 mph - N/A   Scattered Clouds
7:53 AM 37.0 °F - 35.1 °F 93% 29.80 in 10.0 mi Calm Calm - N/A   Scattered Clouds
8:53 AM 34.0 °F - 33.1 °F 96% 29.84 in 8.0 mi Calm Calm - N/A   Scattered Clouds
9:53 AM 33.1 °F - 32.0 °F 96% 29.88 in 10.0 mi Calm Calm - N/A   Mostly Cloudy
10:53 AM 39.9 °F 37.8 °F 36.0 °F 86% 29.93 in 9.0 mi East 3.5 mph - N/A   Mostly Cloudy
11:53 AM 39.9 °F 35.1 °F 36.0 °F 86% 29.95 in 10.0 mi SE 6.9 mph - N/A   Scattered Clouds
12:53 PM 42.1 °F 39.2 °F 36.0 °F 79% 29.97 in 10.0 mi SSE 4.6 mph - N/A   Scattered Clouds
1:53 PM 42.1 °F 38.4 °F 37.0 °F 82% 29.97 in 10.0 mi NNE 5.8 mph - N/A   Mostly Cloudy
2:53 PM 42.1 °F 39.2 °F 37.0 °F 82% 29.99 in 10.0 mi ENE 4.6 mph - N/A   Mostly Cloudy
3:53 PM 39.9 °F 34.5 °F 37.9 °F 93% 30.01 in 10.0 mi NE 8.1 mph - N/A   Mostly Cloudy
4:12 PM 39.2 °F 35.0 °F 39.2 °F 100% 30.01 in 7.0 mi ENE 5.8 mph - N/A   Overcast
4:53 PM 39.0 °F 33.4 °F 37.9 °F 96% 30.02 in 7.0 mi East 8.1 mph - N/A   Overcast
5:53 PM 39.0 °F 35.7 °F 37.9 °F 96% 30.03 in 8.0 mi ENE 4.6 mph - N/A   Overcast
6:33 PM 39.2 °F - 37.4 °F 93% 30.03 in 2.0 mi Calm Calm - N/A   Overcast
6:40 PM 39.2 °F - 37.4 °F 93% 30.03 in 1.0 mi Calm Calm - N/A   Overcast
6:53 PM 37.9 °F 35.5 °F 37.9 °F 100% 30.03 in 1.0 mi WSW 3.5 mph - 0.01 in Rain Light Rain
7:01 PM 37.4 °F 34.9 °F 37.4 °F 100% 30.02 in 2.0 mi WSW 3.5 mph - 0.01 in Rain Light Rain
7:53 PM 37.9 °F 32.7 °F 37.9 °F 100% 30.01 in 2.0 mi SSW 6.9 mph - 0.04 in Rain Light Rain
7:55 PM 39.2 °F 35.0 °F 37.4 °F 93% 30.01 in 3.0 mi SSW 5.8 mph - 0.00 in Rain Light Rain
8:53 PM 39.0 °F 35.7 °F 37.9 °F 96% 30.01 in 7.0 mi SW 4.6 mph - 0.04 in Rain Light Rain
9:53 PM 43.0 °F 34.2 °F 41.0 °F 93% 29.97 in 5.0 mi NE 20.7 mph 25.3 mph 0.05 in Rain Light Rain
10:53 PM 43.0 °F 34.8 °F 41.0 °F 93% 29.96 in 3.0 mi NNE 18.4 mph 23.0 mph 0.09 in Rain Rain
11:38 PM 42.8 °F 33.8 °F 42.8 °F 100% 29.92 in 3.0 mi NNE 21.9 mph 31.1 mph 0.04 in   Overcast
11:53 PM 43.0 °F 33.8 °F 42.1 °F 97% 29.92 in 3.0 mi NNE 23.0 mph - 0.06 in   Overcast
11:58 PM 42.8 °F 34.3 °F 42.8 °F 100% 29.92 in 3.0 mi NNE 19.6 mph 27.6 mph 0.01 in   Overcast